{"data":{"norad_id":66512,"intl_designator":"2025-263AD","name":"STARLINK-35366","alt_names":[],"object_type":"PAYLOAD","status":"ACTIVE","operator":null,"country":"US","launch_date":"2025-11-15","launch_site_code":"AFETR","launch_vehicle":null,"mission":null,"orbit_class":"UNKNOWN","rcs_meters":null,"size_class":null,"mass_kg":null,"dimensions":null,"purposes":["comms"],"wikipedia_slug":null,"has_3d_model":false,"image_url":null,"decayed_at":null,"tle_current":{"epoch":"2026-05-25T02:18:33.731136Z","epoch_age_seconds":70777,"freshness":"FRESH","line1":"1 66512U 25263AD  26145.09622374  .00013642  00000+0  50428-3 0  9996","line2":"2 66512  43.0004 279.2453 0001952 285.1402  74.9234 15.27582921 30581","mean_motion":15.27582921,"eccentricity":0.0001952,"inclination_deg":43.0004,"raan_deg":279.2453,"arg_perigee_deg":285.1402,"mean_anomaly_deg":74.9234,"bstar":0.00050428,"rev_number":3058,"period_min":94.266568459494,"perigee_km":481.70104771014,"apogee_km":484.3796513474,"semimajor_km":6861.1773495288,"source":"CELESTRAK","updated_at":"2026-05-25T13:38:21.248290Z"}}}